Regional Weather Roundup
Issued by NWS Cleveland, OH

Home | Current Version | Previous Version | Text Only | Print | Product List | Glossary On
Versions: 1 2 3 4 5 6 7 8 9 10 11 12 13 14 15 16 17 18 19 20 21 22 23 24 25 26 27 28 29 30 31 32 33 34 35 36 37 38 39 40 41 42 43 44 45 46 47 48 49 50
000
ASUS41 KCLE 211812
RWRCLE
OHIO REGIONAL WEATHER ROUNDUP
NATIONAL WEATHER SERVICE WILMINGTON, OH
100 PM EST TUE NOV 21 2017

NOTE: "FAIR" INDICATES FEW OR NO CLOUDS BELOW 12,000 FEET WITH NO
SIGNIFICANT WEATHER AND/OR OBSTRUCTIONS TO VISIBILITY.

OHZ001>008-015>018-024>027-034-035-043-044-211900-
   NORTHWEST OHIO

CITY           SKY/WX    TMP DP  RH WIND       PRES   REMARKS
DEFIANCE       FAIR      50  32  50 SW13G22   29.80F
FINDLAY        FAIR      52  32  46 SW16G25   29.81F
TOLEDO EXPRESS FAIR      52  34  50 W23G31    29.77S
TOLEDO EXEC    FAIR      51  33  50 SW20G32   29.79S
LIMA           FAIR      51  34  52 SW22G33   29.83S
$$

OHZ009>014-019>023-028>033-038-089-211900-
   NORTHEAST OHIO

CITY           SKY/WX    TMP DP  RH WIND       PRES   REMARKS
CLE-HOPKINS    PTSUNNY   53  30  41 SW22G31   29.83F
CLE-LAKEFRONT  FAIR      54  29  38 S21G29    29.80F
CUY CO. ARPT   NOT AVBL
LORAIN-ELYRIA  FAIR      50  28  42 SW25G33   29.81F
ASHTABULA      FAIR      51  28  41 S20G33    29.82R
AKRON-CANTON   PTSUNNY   51  27  39 SW21G33   29.85F
WOOSTER        FAIR      52  27  38 SW23G33   29.84F
MANSFIELD      FAIR      51  31  46 S20G29    29.83F
YOUNGSTOWN     CLOUDY    52  26  36 SW20G30   29.85F
$$

OHZ042-051>053-060>062-070>072-077>081-211900-
  SOUTHWEST OHIO

CITY           SKY/WX    TMP DP  RH WIND       PRES   REMARKS
CINC-COVINGTON FAIR      54  32  43 SW14G21   29.93F
CINC-LUNKEN    FAIR      56  30  37 SW22G28   29.95F
HAMILTON       FAIR      55  31  39 SW14G23   29.93F
DAYTON         FAIR      52  33  48 SW20G28   29.89S
WRIGHT-PAT AFB FAIR      54  28  37 SW20      29.88F
DAYTON GENERAL FAIR      52  29  41 SW17G29   29.90F
WILMINGTON     FAIR      51  31  46 SW21      29.90F
$$

OHZ036-037-039>041-045>050-054>059-063>069-073>076-082>088-211900-
  CENTRAL AND SOUTHEAST OHIO

CITY           SKY/WX    TMP DP  RH WIND       PRES   REMARKS
COLUMBUS       PTSUNNY   50  29  44 SW17G25   29.91F
OSU AIRPORT    FAIR      51  32  48 S18G28    29.88F
BOLTON FIELD   SUNNY     48  32  53 SW16G26   29.91F
RICKENBACK AFB FAIR      51  31  45 SW17G25   29.91S
NEWARK         FAIR      53  26  35 SW15G32   29.90F
MARION         FAIR      51  31  46 SW22G31   29.85F
LANCASTER      FAIR      54  30  40 SW16G30   29.92F
ZANESVILLE     FAIR      54  30  40 SW24G32   29.92F
NEW PHILLY     FAIR      53  28  38 S13G24    29.91F
$$



USA.gov is the U.S. government's official web portal to all federal, state and local government web resources and services.